Voltar ao catálogo

STARLINK-31012

AtivoComunicaçõesVLEO
NORAD 58531·PAYLOAD·🇺🇸 United States

Lançado Dec 8, 2023 de Vandenberg Space Force Base

Loading…

Próximas Passagens (próximas 24 horas)

TLE

AtualizadoSource: CelesTrak SupGP

Época: Sep 14, 2026, 21:50 UTC

1 58531C 23192A   26257.91020833  .00045434  00000+0  13425-2 0  2570
2 58531  53.1568 261.5007 0001302  91.4662  93.7528 15.34364331    15

Acompanhe STARLINK-31012 em tempo real com AllMySat

Download on the App Store